User: anonymous
Location: Fiddletown
(38.4917°N, 120.6633°W)
Time: 06:19:20
(UTC-07:00)
Language:

Envisat - Orbit

View from above orbital plane
View from above orbital plane
View from above satellite
View from above satellite

Ground track
Ground track

The orbit data is extracted from the following two-line orbital elements,

1 27386U 02009A   14109.89154423  .00000154  00000-0  65617-4 0   493
2 27386 098.3889 176.6439 0001279 082.1044 278.0246 14.37700273635206
Epoch (UTC): 19 April 2014 21:23:49
Eccentricity: 0.0001279
inclination: 98.3889°
perigee height: 765 km
apogee height: 767 km
right ascension of ascending node: 176.6439°
argument of perigee: 82.1044°
revolutions per day: 14.37700273
mean anomaly at epoch: 278.0246°
orbit number at epoch: 63520

The dashed part of the orbit path shows where the satellite is in the earth's shadow,  

DLR